Wind_Speed
32 32 32 32 33 33 33 33 34 34 34 34 35 35 36 37 37 37 37 38 40 40 41 41 41 41 42 42 43 43 43 44 44 44 44 44 43 43 44 44 44 45 45
33 33 33 33 33 34 34 35 35 35 35 35 36 36 36 37 37 38 39 39 40 40 40 41 41 42 43 44 45 45 44 45 45 45 45 45 45 45 45 45 46 46 46
33 34 34 34 34 34 35 35 35 35 35 36 36 36 36 36 38 38 38 40 40 40 40 41 41 42 43 43 44 44 45 45 46 46 46 47 46 46 46 47 47 46 46
33 34 34 34 34 35 35 35 35 35 36 36 37 37 37 36 37 38 39 40 40 40 40 41 42 42 43 43 43 43 44 45 45 46 46 47 47 47 48 48 48 47 47
33 33 34 34 35 34 35 35 35 35 36 37 38 38 38 38 38 39 39 39 40 40 40 40 41 42 43 43 43 44 44 45 45 45 46 45 46 47 48 49 48 49 48
33 33 34 34 35 35 35 36 36 36 36 37 38 38 39 39 39 39 40 40 40 40 40 40 41 42 42 43 43 43 43 44 45 45 45 45 46 46 48 48 48 48 48
33 33 33 34 34 34 35 36 36 37 37 38 38 38 39 39 39 40 40 40 40 40 41 41 41 42 42 43 43 44 44 44 45 45 45 46 46 47 48 48 47 47 47
33 33 32 33 34 34 35 35 36 37 37 37 38 38 39 40 40 41 41 41 42 42 41 41 42 43 43 43 44 44 45 45 45 46 46 46 46 47 47 47 47 47 47
32 32 33 33 33 34 34 35 36 37 37 37 38 38 38 40 40 41 41 42 43 43 43 43 42 42 43 44 44 45 45 46 46 46 47 47 47 47 47 47 47 47 47
32 32 32 32 32 33 34 35 36 37 37 36 37 37 38 39 39 40 41 43 43 43 44 44 44 44 44 44 45 45 46 46 46 47 47 48 47 47 47 47 47 48 48
32 32 32 31 31 32 33 34 35 35 35 35 36 36 38 39 39 40 42 43 43 44 44 45 45 45 45 45 45 46 46 46 46 47 47 47 48 48 47 47 47 47 48
31 31 31 31 31 32 32 33 34 34 35 35 36 37 38 40 41 42 43 43 44 44 44 45 44 44 44 45 45 45 46 46 46 46 46 46 47 48 48 48 48 48 48
31 31 31 30 31 31 32 32 33 34 35 36 37 38 39 41 42 42 43 43 44 44 44 45 45 45 44 44 43 44 45 45 45 45 46 46 47 47 48 47 47 47 47
31 30 30 30 30 31 31 31 31 32 33 35 37 37 38 40 42 42 43 43 43 43 43 43 44 44 44 44 44 44 44 44 44 45 45 46 46 46 46 46 46 45 45
30 30 30 30 30 30 31 30 31 32 33 34 35 36 38 38 39 39 40 41 41 41 42 42 42 43 43 43 43 43 43 43 43 44 44 45 44 45 44 44 44 43 43
30 30 30 30 31 31 31 31 31 32 33 33 33 34 35 36 37 37 38 38 38 39 40 40 41 41 41 41 41 41 41 41 41 42 42 43 42 42 43 43 43 43 43
31 31 31 31 31 31 31 31 32 32 33 32 32 33 34 34 34 35 35 35 36 36 36 36 37 37 38 39 39 39 39 40 40 41 41 41 41 41 41 41 41 41 41
31 31 31 31 31 31 31 31 31 31 32 32 33 34 34 34 35 35 35 34 33 33 33 33 34 34 35 35 36 37 38 39 39 39 40 39 39 39 39 39 39 39 39
31 30 30 30 30 30 31 31 31 31 31 32 33 33 33 33 33 33 32 31 31 31 31 32 32 32 32 32 33 34 35 35 35 35 36 36 36 37 37 37 37 37 37
29 29 29 30 30 30 30 30 31 31 31 31 32 32 32 32 32 31 31 31 31 31 31 30 30 29 29 30 31 32 32 32 32 32 33 33 34 34 34 34 35 35 36
28 28 29 29 30 30 30 30 30 30 30 31 31 31 31 31 31 31 30 30 30 30 29 28 28 28 28 29 29 30 30 30 30 31 31 31 31 31 31 32 33 33 34
27 27 28 28 29 29 29 29 29 29 29 30 30 30 29 29 29 29 29 29 28 28 27 26 26 27 27 28 28 28 29 29 29 30 30 30 30 30 30 31 32 32 33
27 27 27 28 28 28 27 27 27 28 28 28 28 28 27 27 28 29 29 28 28 27 27 27 26 27 27 27 28 28 28 28 29 29 29 29 28 29 30 30 30 30 30
27 27 27 27 27 26 26 26 26 26 27 27 27 27 27 28 29 29 28 28 28 27 26 26 26 26 27 27 28 28 27 27 28 28 28 28 28 28 28 28 29 28 28
27 27 26 26 26 26 27 26 26 27 27 27 27 27 27 28 28 27 28 28 27 27 26 26 26 27 27 27 27 27 26 26 26 26 26 26 27 27 26 26 26 26 26
26 26 26 25 25 26 26 27 27 27 27 28 28 27 27 26 26 26 26 26 26 26 27 26 26 26 25 25 25 25 24 24 24 24 24 24 24 24 24 24 24 24 24
Wind_Direction
269 268 268 268 267 266 265 263 262 261 260 261 261 261 261 261 260 260 262 263 263 263 263 262 261 261 261 262 263 263 263 263 264 265 265 265 265 266 266 267 267 268 268
269 268 268 268 267 267 266 264 263 262 262 262 262 262 262 261 261 262 262 263 266 265 265 264 264 263 263 263 264 263 263 264 265 265 266 266 265 266 266 267 267 268 269
270 269 268 267 267 267 266 264 263 263 263 262 262 262 263 263 262 262 265 266 266 265 265 266 267 265 264 265 264 263 263 264 264 266 267 267 266 266 267 268 269 270 270
271 270 269 268 267 267 267 265 263 262 263 262 262 263 263 263 263 264 266 266 267 267 267 267 267 267 267 266 265 265 264 264 265 266 267 266 267 267 268 268 269 269 270
271 270 270 269 268 268 266 265 263 263 263 263 262 263 264 264 265 266 266 266 267 268 269 269 269 270 270 269 267 266 265 266 267 267 267 268 269 269 268 268 269 269 270
273 271 271 270 270 268 266 265 264 264 265 264 264 264 265 266 267 266 266 267 268 269 269 270 270 270 270 269 268 267 267 268 268 267 267 269 271 271 270 269 269 270 270
274 274 272 271 271 269 267 266 265 265 265 265 265 265 266 266 266 266 267 268 269 271 270 270 270 270 270 269 268 269 269 270 269 268 268 269 270 272 272 271 270 270 271
274 274 274 274 272 269 268 268 266 265 266 266 266 267 266 265 266 267 268 269 270 272 272 271 270 270 269 269 269 270 270 270 270 270 270 270 270 271 272 271 271 270 270
276 275 276 276 274 272 270 269 268 267 267 267 266 267 266 266 267 268 269 270 271 271 271 271 271 271 269 269 270 271 270 271 271 271 270 270 270 271 270 270 271 271 270
276 276 276 276 275 273 272 271 269 268 267 267 267 267 267 267 268 269 269 271 272 271 271 271 271 271 271 271 272 272 271 271 271 271 271 270 269 270 270 270 271 272 272
276 276 276 276 277 275 273 271 270 268 267 268 268 270 270 268 270 271 272 272 272 272 271 271 271 271 271 271 272 271 271 271 271 271 270 270 270 270 270 270 271 272 273
278 277 277 277 277 277 275 273 270 269 267 269 270 271 271 271 271 273 274 274 273 272 272 271 271 271 271 271 272 272 271 271 271 271 271 271 270 270 270 270 271 272 274
278 277 277 277 277 277 276 274 272 271 269 270 271 272 272 272 273 275 275 275 275 274 273 272 271 270 270 270 271 272 272 273 273 272 271 272 271 270 270 270 271 272 273
277 277 278 277 277 278 277 275 274 274 273 273 275 274 276 276 275 275 275 275 275 275 274 272 271 270 270 271 271 271 272 272 272 272 272 272 272 271 270 271 271 272 273
278 278 278 278 278 279 278 277 277 277 277 277 277 277 279 278 277 276 276 277 276 275 274 273 272 272 271 271 271 271 271 272 272 272 272 273 273 272 271 271 271 272 272
279 279 279 278 278 278 279 277 277 277 279 279 279 280 281 280 278 278 278 278 277 276 275 274 274 273 272 272 272 272 271 272 272 273 273 273 273 272 271 271 272 271 272
279 278 279 279 279 280 280 278 279 280 281 281 281 281 281 282 281 280 280 280 279 278 278 276 274 274 274 273 273 272 272 272 273 274 273 273 272 272 271 271 271 271 272
279 279 279 278 280 281 281 281 282 283 282 283 283 282 282 283 283 282 282 282 282 280 279 277 276 275 274 274 274 273 273 274 274 275 274 273 272 272 272 271 271 271 271
280 278 279 279 281 283 283 281 282 282 283 283 284 284 284 283 283 283 283 282 282 282 281 280 278 277 276 276 276 275 275 276 277 277 275 274 273 272 271 270 269 269 270
279 278 279 280 282 284 285 282 281 280 281 282 284 285 285 284 284 282 281 282 283 283 283 281 279 277 277 276 275 275 276 277 278 277 277 276 275 273 271 271 270 271 271
279 279 280 281 283 284 284 282 281 280 281 282 283 285 285 284 283 282 282 283 283 283 282 280 279 277 277 276 276 276 277 278 277 277 277 276 275 273 271 271 272 272 273
278 278 280 282 283 283 282 281 281 282 283 284 285 285 285 284 284 284 284 284 283 283 282 280 278 278 277 277 277 278 278 278 278 278 278 276 275 273 272 272 273 274 274
278 279 280 281 282 282 282 282 282 282 284 285 285 284 284 284 284 285 284 283 283 283 282 280 278 278 278 278 278 278 277 277 278 278 277 276 275 274 273 273 274 274 273
279 280 281 281 281 281 281 282 282 283 284 285 285 285 285 285 286 285 284 283 283 282 281 280 279 278 278 279 279 278 277 277 278 279 278 276 274 273 273 274 274 274 273
280 279 280 279 280 281 281 282 282 283 285 286 287 287 286 287 286 285 283 282 282 281 281 280 280 280 280 280 280 279 278 278 278 278 278 277 275 274 273 275 275 274 274
278 278 278 278 279 280 281 282 282 283 284 286 287 287 287 286 286 286 284 282 281 281 280 279 280 280 281 281 281 280 279 278 278 279 279 277 275 274 273 275 275 275 275
Height
5708 5708 5708 5708 5708 5709 5709 5710 5711 5712 5713 5714 5715 5716 5718 5719 5720 5722 5723 5724 5725 5726 5727 5728 5729 5730 5732 5733 5734 5735 5736 5737 5738 5739 5740 5741 5742 5742 5743 5744 5744 5745 5745
5699 5699 5699 5699 5700 5700 5700 5701 5702 5703 5704 5705 5706 5708 5709 5710 5711 5713 5714 5714 5715 5716 5716 5717 5718 5719 5721 5722 5723 5724 5725 5726 5727 5728 5729 5730 5732 5732 5732 5732 5733 5733 5733
5690 5690 5691 5691 5691 5691 5692 5692 5693 5694 5695 5696 5697 5698 5700 5701 5702 5704 5704 5705 5705 5705 5706 5707 5707 5708 5709 5710 5712 5713 5714 5715 5716 5717 5717 5718 5719 5720 5721 5721 5721 5721 5721
5681 5681 5681 5682 5682 5683 5683 5683 5684 5685 5686 5687 5688 5689 5691 5692 5693 5695 5695 5695 5695 5695 5696 5696 5696 5697 5698 5699 5700 5701 5703 5703 5704 5705 5706 5706 5707 5708 5709 5710 5709 5709 5709
5673 5672 5672 5673 5673 5673 5673 5674 5675 5676 5677 5678 5679 5680 5682 5683 5684 5685 5686 5686 5686 5686 5686 5686 5686 5687 5687 5688 5689 5690 5691 5692 5693 5693 5694 5694 5695 5695 5696 5697 5698 5698 5698
5664 5664 5664 5664 5664 5664 5664 5665 5666 5667 5668 5669 5670 5671 5672 5673 5674 5675 5676 5676 5676 5676 5676 5676 5676 5677 5677 5678 5679 5679 5680 5680 5681 5681 5682 5683 5683 5683 5683 5684 5685 5685 5686
5655 5655 5655 5655 5655 5655 5656 5656 5657 5658 5659 5660 5661 5662 5663 5664 5665 5665 5666 5666 5666 5666 5666 5666 5666 5666 5666 5667 5668 5668 5669 5669 5669 5670 5670 5671 5671 5671 5671 5671 5672 5673 5674
5647 5647 5646 5646 5646 5646 5647 5647 5648 5649 5649 5650 5651 5652 5653 5654 5654 5655 5656 5656 5656 5656 5655 5655 5655 5656 5655 5656 5657 5657 5657 5657 5657 5658 5658 5658 5659 5658 5658 5659 5660 5661 5661
5639 5638 5637 5637 5637 5637 5637 5638 5638 5639 5639 5640 5642 5642 5643 5644 5644 5645 5645 5645 5645 5645 5644 5644 5644 5644 5644 5644 5645 5645 5645 5645 5646 5646 5646 5646 5646 5646 5646 5646 5647 5648 5648
5630 5630 5629 5628 5628 5628 5628 5628 5628 5629 5630 5631 5632 5632 5633 5634 5634 5634 5634 5634 5633 5633 5632 5632 5632 5632 5632 5633 5633 5633 5633 5633 5633 5633 5634 5634 5634 5634 5634 5634 5634 5634 5635
5622 5622 5621 5620 5619 5619 5619 5619 5619 5619 5620 5621 5621 5622 5623 5623 5623 5623 5623 5622 5622 5621 5621 5621 5620 5620 5621 5621 5621 5621 5621 5621 5621 5621 5621 5621 5621 5621 5621 5621 5621 5621 5621
5615 5614 5613 5612 5611 5611 5610 5610 5610 5610 5611 5611 5612 5612 5612 5612 5612 5612 5612 5611 5610 5609 5609 5609 5608 5608 5608 5608 5608 5608 5608 5608 5608 5608 5608 5608 5608 5608 5608 5608 5608 5608 5608
5607 5606 5605 5604 5603 5602 5602 5601 5601 5601 5601 5601 5602 5602 5602 5601 5601 5601 5600 5599 5598 5597 5597 5596 5596 5596 5596 5596 5596 5596 5596 5595 5595 5595 5595 5595 5595 5595 5595 5595 5595 5595 5595
5599 5598 5597 5596 5595 5594 5593 5593 5592 5592 5592 5592 5592 5591 5591 5591 5590 5589 5588 5587 5586 5585 5584 5584 5584 5584 5584 5584 5584 5584 5583 5583 5583 5583 5583 5582 5582 5582 5582 5582 5582 5583 5583
5591 5590 5589 5588 5587 5586 5585 5585 5584 5584 5584 5583 5582 5581 5580 5580 5579 5577 5576 5575 5574 5573 5573 5572 5572 5572 5572 5572 5572 5572 5571 5571 5571 5571 5570 5570 5570 5569 5569 5570 5570 5570 5571
5583 5582 5581 5580 5579 5578 5577 5577 5576 5575 5575 5574 5573 5571 5570 5569 5568 5567 5565 5564 5563 5562 5561 5561 5561 5561 5561 5561 5560 5560 5560 5560 5559 5559 5558 5558 5558 5557 5557 5558 5558 5558 5559
5574 5573 5572 5571 5570 5570 5569 5568 5567 5567 5566 5565 5563 5562 5561 5560 5558 5557 5555 5554 5553 5551 5551 5550 5550 5550 5550 5549 5549 5548 5548 5548 5548 5547 5547 5547 5547 5546 5546 5546 5546 5547 5547
5566 5565 5564 5563 5562 5561 5560 5559 5559 5558 5557 5555 5554 5553 5552 5550 5549 5547 5545 5544 5543 5542 5541 5540 5540 5539 5539 5539 5538 5538 5537 5537 5537 5536 5536 5536 5536 5535 5535 5535 5535 5536 5536
5557 5557 5556 5555 5554 5553 5552 5551 5550 5549 5548 5547 5546 5544 5543 5541 5539 5538 5536 5535 5534 5533 5532 5531 5530 5530 5530 5529 5528 5528 5527 5527 5526 5526 5525 5525 5525 5525 5525 5525 5525 5525 5525
5549 5548 5548 5547 5546 5545 5543 5543 5541 5540 5539 5538 5537 5535 5534 5532 5531 5529 5528 5526 5525 5524 5523 5522 5521 5521 5521 5520 5519 5518 5518 5518 5517 5517 5516 5515 5515 5515 5515 5515 5515 5515 5515
5541 5540 5539 5538 5537 5536 5535 5534 5533 5532 5531 5530 5528 5527 5525 5524 5522 5521 5519 5518 5517 5516 5514 5514 5513 5512 5512 5511 5511 5510 5509 5508 5508 5508 5507 5506 5506 5506 5505 5505 5505 5505 5505
5533 5532 5532 5530 5529 5528 5527 5526 5525 5524 5523 5521 5520 5518 5517 5515 5514 5512 5511 5510 5508 5507 5506 5505 5505 5504 5503 5503 5502 5501 5500 5500 5499 5499 5498 5498 5497 5497 5497 5496 5496 5496 5495
5525 5524 5524 5523 5522 5520 5519 5518 5517 5516 5515 5513 5511 5510 5509 5507 5506 5504 5503 5501 5500 5499 5498 5497 5497 5496 5495 5494 5494 5493 5492 5491 5490 5490 5490 5489 5489 5489 5488 5488 5487 5487 5486
5517 5517 5516 5515 5514 5513 5512 5511 5510 5508 5507 5505 5504 5502 5501 5499 5498 5496 5495 5493 5492 5491 5490 5489 5489 5488 5487 5487 5486 5485 5484 5483 5482 5482 5481 5481 5481 5481 5481 5480 5479 5479 5478
5510 5509 5508 5507 5506 5505 5504 5503 5502 5501 5499 5498 5496 5495 5493 5491 5489 5488 5486 5485 5484 5483 5482 5482 5481 5480 5480 5479 5477 5476 5476 5476 5475 5474 5474 5473 5473 5473 5473 5473 5472 5471 5471
5502 5501 5500 5500 5499 5498 5497 5496 5494 5493 5492 5490 5488 5487 5485 5483 5482 5480 5479 5477 5476 5475 5474 5473 5473 5472 5472 5471 5470 5469 5469 5468 5468 5467 5467 5466 5466 5466 5466 5465 5465 5464 5464